Location: 22
(39.7117°N, 89.5929°W)
Time: 18:39:58
(UTC-05:00)

Vanguard 3 - Pass Details

Date: 31 January 2023
Orbit: 508 x 3249 km, 33.4° (Epoch: 30 March)

Event Time Altitude Azimuth Distance (km) Brightness Sun altitude
Rises 00:26:38 0° 279° (W) 6,231 11.7 -67.5°
Enters shadow 00:27:56 - 277° (W) 5,974 11.5 -67.5°
Reaches altitude 10° 00:30:27 10° 275° (W) 5,496 - -67.4°
Maximum altitude 00:47:29 54° 205° (SSW) 3,710 - -66.4°
Drops below altitude 10° 01:05:42 10° 135° (SE) 5,810 - -64.8°
Exits shadow 01:07:45 - 133° (SE) 6,185 11.6 -64.6°
Sets 01:09:54 0° 131° (SE) 6,589 11.8 -64.4°
